[[[{"header":{"parameterUnit":"kt","parameterCategory":2,"dx":1,"dy":1,"la1":30.253999710083008,"la2":30.299108505249023,"lo1":-89.0895004272461,"lo2":-89.04439544677734,"nx":28,"ny":28,"refTime":"2022-09-28T21:00:00:Z","depth":0,"parameterNumber":1,"parameterNumberName":"U-component_of_WINDS"},"data":[-3.5656,-3.5715,-3.5714,-3.5781,-3.5791,-3.5836,-3.5852,-3.5872,-3.5888,-3.594,-3.597,-3.5975,-3.5989,-3.6024,-3.6056,-3.6057,-3.607,-3.6091,-3.6089,-3.5998,-3.5985,-3.5973,-3.5959,-3.6094,-3.6094,-3.6183,-3.6184,-3.6184,-3.5586,-3.5598,-3.5633,-3.5667,-3.5697,-3.5677,-3.5701,-3.5728,-3.5768,-3.5788,-3.5818,-3.5864,-3.59,-3.5908,-3.5942,-3.5968,-3.596,-3.5977,-3.5975,-3.5978,-3.5881,-3.5866,-3.5983,-3.5983,-3.5983,-3.5983,-3.5983,-3.5983,-3.5459,-3.5495,-3.5516,-3.5554,-3.5571,-3.5594,-3.5627,-3.5633,-3.5667,-3.5704,-3.5697,-3.5743,-3.5762,-3.5803,-3.5817,-3.5851,-3.5832,-3.5851,-3.5855,-3.586,-3.5865,-3.5736,-3.5857,-3.5857,-3.5856,-3.5856,-3.5856,0,-3.5366,-3.5364,-3.5399,-3.5433,-3.5461,-3.5487,-3.5512,-3.5532,-3.5526,-3.5555,-3.5596,-3.5619,-3.5665,-3.5703,-3.5735,-3.5745,-3.5727,-3.5725,-3.5738,-3.5742,-3.5741,-3.5742,-3.5583,-3.5722,-3.5721,-3.572,-3.5719,-3.5719,-3.5238,-3.5281,-3.5303,-3.5327,-3.534,-3.538,-3.5403,-3.5395,-3.5419,-3.5447,-3.5479,-3.5517,-3.5547,-3.5612,-3.5618,-3.5652,-3.5644,-3.5697,-3.5649,-3.5651,-3.5644,-3.5642,-3.5646,-3.5707,-3.5708,-3.5709,-3.5711,0,-3.5166,-3.5166,-3.5232,-3.5249,-3.5255,-3.5299,-3.5314,-3.5349,-3.5351,-3.54,-3.541,-3.5414,-3.5454,-3.5451,-3.5497,-3.5494,-3.5565,-3.5556,-3.5557,-3.5555,-3.5602,-3.5598,-3.5756,-3.5776,-3.5637,-3.5638,-3.5639,0,-3.5057,-3.5113,-3.511,-3.5148,-3.5209,-3.52,-3.526,-3.5268,-3.5286,-3.5324,-3.5303,-3.5339,-3.5331,-3.5366,-3.5362,-3.5419,-3.5428,-3.5429,-3.5428,-3.5432,-3.5432,-3.5445,-3.5438,-3.5423,-3.5422,-3.5422,-3.5421,0,-3.4944,-3.5008,-3.507,-3.5085,-3.511,-3.5139,-3.515,-3.5171,-3.5194,-3.5223,-3.5237,-3.5272,-3.5291,-3.5318,-3.5313,-3.5281,-3.5383,-3.5337,-3.5384,-3.5384,-3.5408,-3.5407,-3.5546,-3.542,-3.542,-3.542,-3.5419,0,-3.4857,-3.4888,-3.4977,-3.4998,-3.5015,-3.5056,-3.5089,-3.5124,-3.5147,-3.5147,-3.517,-3.5157,-3.5207,-3.5162,-3.5231,-3.519,-3.5209,-3.5215,-3.5219,-3.5224,-3.5173,-3.5253,-3.5386,-3.54,-3.5227,-3.5225,-3.5224,0,-3.4727,-3.4818,-3.4812,-3.4897,-3.4939,-3.4913,-3.4958,-3.4979,-3.4984,-3.5019,-3.5024,-3.5065,-3.5031,-3.5043,-3.5078,-3.5084,-3.5137,-3.5077,-3.5127,-3.5129,-3.5122,-3.5244,-3.5265,-3.5357,-3.5203,-3.5205,-3.5207,0,-3.4627,-3.4659,-3.4675,-3.4691,-3.4719,-3.4754,-3.4806,-3.4845,-3.4868,-3.4895,-3.4938,-3.4995,-3.4971,-3.4993,-3.4986,-3.5022,-3.5101,-3.4992,-3.4992,-3.5011,-3.5193,-3.5212,-3.5227,-3.5088,-3.5091,-3.5093,-3.519,0,-3.4494,-3.454,-3.4583,-3.4621,-3.4648,-3.4702,-3.4702,-3.473,-3.472,-3.4725,-3.4787,-3.4805,-3.4845,-3.4862,-3.4854,-3.4937,-3.4923,-3.4898,-3.4855,-3.4935,-3.4967,-3.498,-3.4806,-3.4805,-3.4804,-3.4803,0,0,-3.437,-3.4436,-3.4429,-3.448,-3.4502,-3.4476,-3.4533,-3.4552,-3.4591,-3.4606,-3.4582,-3.4666,-3.4682,-3.4758,-3.4783,-3.48,-3.4814,-3.4787,-3.4897,-3.4907,-3.4917,-3.4951,-3.4965,-3.4801,-3.4801,-3.48,-3.48,0,-3.4321,-3.434,-3.4397,-3.4416,-3.4445,-3.4447,-3.4461,-3.4484,-3.449,-3.4552,-3.4529,-3.4567,-3.4635,-3.4655,-3.4674,-3.4777,-3.4758,-3.4789,-3.4845,-3.4886,-3.4898,-3.4908,-3.4945,-3.4958,-3.4797,-3.4798,-3.4798,0,-3.4223,-3.424,-3.4269,-3.432,-3.4338,-3.4382,-3.4336,-3.4386,-3.4418,-3.4387,-3.445,-3.446,-3.4486,-3.4559,-3.4592,-3.4571,-3.4707,-3.4664,-3.4671,-3.4675,-3.4715,-3.4729,-3.4742,-3.4574,-3.4573,-3.4572,0,0,-3.4181,-3.4225,-3.4242,-3.4309,-3.4322,-3.4327,-3.4351,-3.4345,-3.437,-3.438,-3.4393,-3.4418,-3.4457,-3.4483,-3.452,-3.46,-3.4605,-3.4637,-3.4647,-3.4656,-3.4665,-3.4706,-3.4721,-3.4569,-3.4569,-3.4569,0,0,-3.4161,-3.4184,-3.4171,-3.4249,-3.4274,-3.4295,-3.4336,-3.432,-3.4354,-3.4348,-3.4339,-3.4345,-3.4413,-3.4425,-3.4385,-3.4504,-3.4461,-3.4471,-3.4495,-3.4508,-3.4519,-3.4515,-3.4341,0,0,0,0,0,-3.4113,-3.4181,-3.4169,-3.4182,-3.4247,-3.4302,-3.431,-3.4305,-3.4274,-3.4306,-3.4315,-3.4293,-3.4401,-3.4366,-3.4379,-3.4423,-3.4532,-3.4538,-3.4545,-3.4595,-3.4609,-3.462,0,0,0,0,0,0,-3.4118,-3.4134,-3.4167,-3.4191,-3.4206,-3.4299,-3.4246,-3.4247,-3.4271,-3.4266,-3.4292,-3.4294,-3.429,-3.4359,-3.4371,-3.4413,-3.4337,-3.4534,-3.454,-3.4545,-3.4599,-3.4611,-3.4621,0,0,0,0,0,-3.4122,-3.4135,-3.4241,-3.419,-3.4203,-3.4212,-3.4244,-3.4244,-3.4262,-3.4275,-3.4276,-3.4256,-3.4291,-3.4301,-3.4366,-3.4408,-3.4329,-3.4333,-3.4538,-3.4542,-3.4546,-3.4605,0,0,0,0,0,0,-3.4125,-3.4135,-3.4243,-3.4247,-3.4164,-3.4207,-3.4213,-3.4241,-3.427,-3.4272,-3.4238,-3.4234,-3.4293,-3.43,-3.4308,-3.4406,-3.4322,-3.4327,-3.433,-3.4541,-3.4545,-3.4548,0,0,0,0,0,0,-3.4128,-3.4138,-3.4245,-3.4213,-3.4212,-3.4202,-3.4208,-3.4262,-3.4271,-3.4231,-3.4229,-3.4236,-3.4282,-3.43,-3.4306,-3.4392,-3.4317,-3.4321,-3.4324,-3.4326,-3.4544,-3.4547,0,0,0,0,0,0,-3.4132,-3.4141,-3.4212,-3.4212,-3.4211,-3.4251,-3.425,-3.4317,-3.4244,-3.423,-3.4237,-3.4234,-3.4283,-3.4288,-3.4305,-3.4388,-3.4391,-3.4317,-3.432,-3.4322,-3.4324,0,0,0,0,0,0,0,-3.4135,-3.4077,-3.4222,-3.4211,-3.421,-3.428,-3.4281,-3.4282,-3.4243,-3.424,-3.4238,-3.4235,-3.4293,-3.4297,-3.4302,-3.4386,0,0,-3.4317,-3.4319,0,0,0,0,0,0,0,0,-3.4074,-3.4076,-3.4222,-3.4223,-3.4223,-3.428,-3.4281,-3.4282,-3.4242,-3.424,-3.4238,-3.4236,-3.4294,-3.4298,-3.4302,0,0,0,0,0,0,0,0,0,0,0,0,0,0,0,-3.4222,-3.4223,0,-3.428,-3.4281,-3.4281,-3.4242,-3.424,-3.4239,-3.4237,-3.4295,-3.4298,-3.4301,0,0,0,0,0,0,0,0,0,0,0,0,0,0,0,0,0,0,0,0,0,0,0,0,0,0,0,0,0,0,0,0,0,0,0,0,0,0,0,0,0,0,0,0,0,0,0,0,0,0,0,0,0,0,0,0,0,0,0,0,0,0,0,0,0,0,0,0,0]}],[{"header":{"parameterUnit":"kt","parameterCategory":2,"dx":1,"dy":1,"la1":30.253999710083008,"la2":30.299108505249023,"lo1":-89.0895004272461,"lo2":-89.04439544677734,"nx":28,"ny":28,"refTime":"2022-09-28T21:00:00:Z","depth":0,"parameterNumber":2,"parameterNumberName":"V-component_of_WINDS"},"data":[-15.3586,-15.3714,-15.37,-15.3837,-15.3846,-15.3937,-15.3964,-15.3996,-15.4017,-15.412,-15.4176,-15.417,-15.4181,-15.4242,-15.4299,-15.4294,-15.4319,-15.4378,-15.4362,-15.4118,-15.4083,-15.4049,-15.4018,-15.4384,-15.4385,-15.4617,-15.4619,-15.462,-15.3413,-15.3425,-15.3494,-15.3549,-15.3607,-15.3542,-15.3578,-15.363,-15.3711,-15.3737,-15.3791,-15.3879,-15.3945,-15.3934,-15.3994,-15.405,-15.4021,-15.4068,-15.4062,-15.4065,-15.3804,-15.3771,-15.4091,-15.4091,-15.4091,-15.4091,-15.4091,-15.409,-15.3094,-15.3172,-15.3195,-15.3269,-15.3291,-15.3327,-15.3396,-15.3388,-15.3452,-15.3514,-15.3478,-15.3568,-15.3588,-15.3648,-15.3662,-15.373,-15.3674,-15.3718,-15.3728,-15.374,-15.3757,-15.3426,-15.3739,-15.3738,-15.3737,-15.3736,-15.3735,0,-15.2855,-15.2837,-15.29,-15.2959,-15.3011,-15.3054,-15.3089,-15.3131,-15.3079,-15.3134,-15.321,-15.325,-15.3329,-15.3396,-15.3446,-15.3451,-15.3383,-15.3374,-15.3404,-15.3422,-15.3435,-15.343,-15.3005,-15.3364,-15.336,-15.3358,-15.3356,-15.3355,-15.2531,-15.2622,-15.2637,-15.2684,-15.2698,-15.2774,-15.2814,-15.2762,-15.2806,-15.284,-15.2908,-15.2976,-15.3026,-15.3148,-15.3131,-15.3188,-15.3155,-15.3294,-15.3162,-15.3178,-15.3156,-15.3151,-15.316,-15.332,-15.3325,-15.3328,-15.3331,0,-15.2351,-15.2321,-15.2455,-15.2459,-15.2462,-15.256,-15.2561,-15.2633,-15.2614,-15.2711,-15.273,-15.2699,-15.2772,-15.2732,-15.2806,-15.2782,-15.2939,-15.2906,-15.2933,-15.2924,-15.3045,-15.3034,-15.3443,-15.3494,-15.3114,-15.3118,-15.3121,0,-15.2062,-15.2182,-15.213,-15.221,-15.2342,-15.2285,-15.2416,-15.2412,-15.2427,-15.2502,-15.242,-15.2492,-15.2428,-15.2494,-15.2458,-15.2579,-15.2593,-15.2581,-15.257,-15.2588,-15.259,-15.2607,-15.2589,-15.2541,-15.2539,-15.2537,-15.2536,0,-15.1781,-15.1893,-15.2022,-15.2042,-15.2055,-15.2116,-15.2124,-15.2139,-15.2177,-15.222,-15.2244,-15.2298,-15.2327,-15.2369,-15.2323,-15.2235,-15.2469,-15.2339,-15.2457,-15.2459,-15.2509,-15.2506,-15.2881,-15.2533,-15.2533,-15.2532,-15.2531,0,-15.1542,-15.159,-15.1781,-15.1789,-15.182,-15.1903,-15.1953,-15.2015,-15.2036,-15.202,-15.2052,-15.1991,-15.2093,-15.1966,-15.2105,-15.2004,-15.2037,-15.2035,-15.2042,-15.2047,-15.1906,-15.2122,-15.2484,-15.252,-15.2055,-15.2051,-15.2047,0,-15.1229,-15.1413,-15.1364,-15.1546,-15.1624,-15.1527,-15.1618,-15.1639,-15.1624,-15.1686,-15.1668,-15.1739,-15.1636,-15.1652,-15.1726,-15.1709,-15.1841,-15.1691,-15.1778,-15.1782,-15.1776,-15.2109,-15.2173,-15.241,-15.1996,-15.2001,-15.2005,0,-15.0982,-15.0997,-15.1032,-15.1052,-15.1071,-15.1134,-15.124,-15.1297,-15.1342,-15.1373,-15.1458,-15.1556,-15.1482,-15.1508,-15.1462,-15.1542,-15.175,-15.1451,-15.145,-15.1506,-15.1966,-15.2026,-15.2067,-15.1702,-15.1708,-15.1713,-15.1964,0,-15.0628,-15.0714,-15.0809,-15.0853,-15.0896,-15.1006,-15.0962,-15.1012,-15.0965,-15.0945,-15.1069,-15.1072,-15.1127,-15.116,-15.1113,-15.1309,-15.1269,-15.1188,-15.1059,-15.1279,-15.136,-15.1394,-15.0942,-15.0938,-15.0934,-15.0932,0,0,-15.0336,-15.0457,-15.0398,-15.0498,-15.053,-15.0424,-15.0546,-15.0564,-15.0603,-15.0626,-15.0555,-15.0693,-15.0697,-15.0851,-15.0916,-15.0938,-15.0968,-15.0892,-15.1175,-15.1202,-15.1227,-15.1316,-15.1351,-15.0926,-15.0924,-15.0923,-15.0922,0,-15.0196,-15.0208,-15.0329,-15.0346,-15.0368,-15.0341,-15.0371,-15.0373,-15.0365,-15.0485,-15.0393,-15.0461,-15.0571,-15.0588,-15.0611,-15.0874,-15.0799,-15.0894,-15.1052,-15.1142,-15.1174,-15.1202,-15.1295,-15.133,-15.0914,-15.0914,-15.0915,0,-14.9945,-14.9948,-15.0001,-15.0069,-15.0082,-15.0163,-15.0019,-15.011,-15.0169,-15.0044,-15.0164,-15.0159,-15.0176,-15.0328,-15.0393,-15.0329,-15.0647,-15.0537,-15.0558,-15.0563,-15.0648,-15.0687,-15.0721,-15.027,-15.0268,-15.0266,0,0,-14.983,-14.9908,-14.9892,-15.0035,-15.005,-15.0011,-15.0048,-15.0003,-15.0023,-15.0031,-15.0021,-15.0042,-15.0105,-15.0147,-15.0203,-15.0376,-15.0374,-15.046,-15.0491,-15.0516,-15.0535,-15.0627,-15.0665,-15.0259,-15.0258,-15.0258,0,0,-14.9773,-14.9761,-14.9709,-14.987,-14.9894,-14.9884,-14.9973,-14.9908,-14.9954,-14.9935,-14.9861,-14.9863,-15.0003,-15.0,-14.9903,-15.0156,-15.003,-15.0052,-15.0153,-15.019,-15.022,-15.0217,-14.9752,0,0,0,0,0,-14.9607,-14.9763,-14.9716,-14.9736,-14.9819,-14.9911,-14.9921,-14.9864,-14.9777,-14.9849,-14.9831,-14.9747,-14.9933,-14.9845,-14.9865,-14.9973,-15.0159,-15.0177,-15.0193,-15.0363,-15.0403,-15.0437,0,0,0,0,0,0,-14.9614,-14.9639,-14.9712,-14.971,-14.9728,-14.9905,-14.9745,-14.9733,-14.9768,-14.9751,-14.9753,-14.9747,-14.9699,-14.9831,-14.985,-14.9953,-14.9746,-15.0166,-15.0181,-15.0195,-15.0377,-15.0409,-15.0437,0,0,0,0,0,-14.962,-14.964,-14.9787,-14.9707,-14.9723,-14.9686,-14.9738,-14.9728,-14.9753,-14.9724,-14.9715,-14.9707,-14.9703,-14.9715,-14.9842,-14.9946,-14.9732,-14.9739,-15.0176,-15.0188,-15.0198,-15.0393,0,0,0,0,0,0,-14.9624,-14.963,-14.9789,-14.9791,-14.9644,-14.9674,-14.9677,-14.9723,-14.9722,-14.9715,-14.9673,-14.9659,-14.9708,-14.9716,-14.9726,-14.9948,-14.9721,-14.9729,-14.9733,-15.0185,-15.0194,-15.0202,0,0,0,0,0,0,-14.9618,-14.9633,-14.979,-14.9713,-14.9706,-14.9665,-14.9667,-14.9765,-14.9724,-14.9671,-14.966,-14.9667,-14.9693,-14.9719,-14.9725,-14.9881,-14.9713,-14.972,-14.9725,-14.9728,-15.0192,-15.02,0,0,0,0,0,0,-14.9623,-14.9635,-14.9712,-14.9707,-14.97,-14.9724,-14.975,-14.9836,-14.9661,-14.9673,-14.9643,-14.9635,-14.9698,-14.9703,-14.9726,-14.9879,-14.988,-14.9713,-14.9718,-14.9721,-14.9724,0,0,0,0,0,0,0,-14.9627,-14.956,-14.9774,-14.9701,-14.9695,-14.9815,-14.9815,-14.9816,-14.9659,-14.9652,-14.9645,-14.9638,-14.9673,-14.9681,-14.9688,-14.9877,0,0,-14.9713,-14.9716,0,0,0,0,0,0,0,0,-14.9553,-14.9558,-14.9774,-14.9775,-14.9775,-14.9815,-14.9815,-14.9816,-14.9658,-14.9652,-14.9646,-14.9641,-14.9675,-14.9681,-14.9688,0,0,0,0,0,0,0,0,0,0,0,0,0,0,0,-14.9774,-14.9775,0,-14.9815,-14.9815,-14.9816,-14.9657,-14.9652,-14.9648,-14.9643,-14.9677,-14.9682,-14.9687,0,0,0,0,0,0,0,0,0,0,0,0,0,0,0,0,0,0,0,0,0,0,0,0,0,0,0,0,0,0,0,0,0,0,0,0,0,0,0,0,0,0,0,0,0,0,0,0,0,0,0,0,0,0,0,0,0,0,0,0,0,0,0,0,0,0,0,0,0]}]]]